Regional Weather Roundup
Issued by NWS Upton, NY

Current Version | Previous Version | Graphics & Text | Print | Product List | Glossary Off
Versions: 1 2 3 4 5 6 7 8 9 10 11 12 13 14 15 16 17 18 19 20 21 22 23 24 25 26 27 28 29 30 31 32 33 34 35 36 37 38 39 40 41 42 43 44 45 46 47 48 49 50

000
ASUS41 KOKX 290808
RWROKX

REGIONAL WEATHER ROUNDUP
NATIONAL WEATHER SERVICE NEW YORK NY
400 AM EDT WED JUL 29 2015

NOTE: "FAIR" INDICATES FEW OR NO CLOUDS BELOW 12,000 FEET WITH NO
SIGNIFICANT WEATHER AND/OR OBSTRUCTIONS TO VISIBILITY.

NYZ071-072-176-178-NJZ106-104-290900-
NEW YORK CITY METRO AREA


CITY           SKY/WX    TMP DP  RH WIND       PRES   REMARKS
CENTRAL PARK   CLEAR     79  66  64 W3        29.97F
LAGUARDIA APRT CLEAR     82  66  58 CALM      29.94S
KENNEDY INTL   CLEAR     76  71  85 SW6       29.96S
NEWARK/LIBERTY CLEAR     76  69  79 SW3       29.95S
BRNX BOT. GARD   N/A     79  66  65 N2        29.96R
TETERBORO      CLEAR     76  67  73 CALM      29.94S
$$

NYZ177-179-078>081-290900-
LONG ISLAND NEW YORK

CITY           SKY/WX    TMP DP  RH WIND       PRES   REMARKS
FARMINGDALE    CLEAR     76  71  85 CALM      29.95F
ISLIP          CLEAR     73  70  90 CALM      29.93F
SHIRLEY        CLEAR     73  70  90 CALM      29.95F
WESTHAMPTON    PTCLDY    66  65  96 CALM      29.96S
MONTAUK POINT    N/A     75  71  87 W5        29.95F
$$

NYZ052-065-067-290900-
HUDSON VALLEY

CITY           SKY/WX    TMP DP  RH WIND       PRES   REMARKS
WHITE PLAINS   CLEAR     72  69  90 NW6       29.95F
NEWBURGH       CLEAR     68  66  94 CALM      29.99
MONTGOMERY     CLEAR     66  65  96 SW3       29.97F
POUGHKEEPSIE   CLEAR     69  66  90 CALM      29.96S
ALBANY         PTCLDY    70  62  76 CALM      29.97F
$$

NJZ001-105-106-008-010-013-015-019>022-104-290900-
NEW JERSEY

CITY           SKY/WX    TMP DP  RH WIND       PRES   REMARKS
NEWARK/LIBERTY CLEAR     76  69  79 SW3       29.95S
TETERBORO      CLEAR     76  67  73 CALM      29.94S
CALDWELL       CLEAR     72  66  81 CALM      29.96F
MORRISTOWN     CLEAR     66  63  88 CALM      29.96F
SOMERVILLE     CLEAR     67  64  90 CALM      29.95S
SUSSEX         CLEAR     65  63  93 CALM      29.99S
ANDOVER          N/A     66  65  96 CALM      29.99F
TRENTON        CLEAR     72  69  90 CALM      29.96F FOG
MILLVILLE      CLEAR     71  69  93 CALM      29.98S FOG
ATLANTIC CITY  CLEAR     74  72  93 CALM      29.97F
WRIGHTSTOWN    CLEAR     71  71  99 W1        29.94F
TOMS RIVER     CLEAR     70  66  88 CALM      29.97S
BELMAR         CLEAR     72  64  78 W6        29.97S
$$

PAZ047>061-062-071-290900-
EASTERN PENNSYLVANIA

CITY           SKY/WX    TMP DP  RH WIND       PRES   REMARKS
PHILADELPHIA   PTCLDY    79  74  84 W3        29.97F
ALLENTOWN      CLEAR     70  66  87 CALM      29.99S
SCRANTON       CLEAR     68  62  81 E5        30.02S
$$

CTZ002-004>006-009-010-012-RIZ004-006-007-MAZ004-011-015-290900-
SOUTHERN NEW ENGLAND
 IN CT

CITY           SKY/WX    TMP DP  RH WIND       PRES   REMARKS
BRADLEY INTL   PTCLDY    67  65  93 CALM      29.95S
HARTFORD       CLEAR     70  67  90 CALM      29.94S
DANBURY        CLEAR     67  63  87 CALM      29.98F
WTRBRY/OXFORD  CLEAR     70  63  78 N5        29.99S
BRIDGEPORT     CLEAR     74  69  85 CALM      29.94F
MERIDEN        CLEAR     67  64  90 CALM      29.95S
NEW HAVEN      CLEAR     71  67  87 CALM      29.95R
CHESTER        FAIR      75  66  73 NW3       29.96F
GROTON         CLEAR     69  68  96 CALM      29.93F FOG
WILLIMANTIC    CLEAR     68  65  90 CALM      29.96R

 IN RI

CITY           SKY/WX    TMP DP  RH WIND       PRES   REMARKS
PROVIDENCE     CLEAR     71  68  90 CALM      29.94F
BLOCK ISLAND   CLEAR     72  70  94 W6        29.95S
WESTERLY       CLEAR     67  65  93 CALM      29.95S

 IN MA

CITY           SKY/WX    TMP DP  RH WIND       PRES   REMARKS
BOSTON         CLEAR     73  68  84 W6        29.93S
WORCESTER      CLEAR     73  64  73 W13       29.99S
WESTFIELD      CLEAR     66  64  93 CALM      29.96S
PROVINCETOWN   CLEAR     66  63  88 SW5       29.93S
NANTUCKET      FOG       71  69  93 W9        29.93F VSB 1/2
$$

ANZ330-335-338-340-345-350-353-355-290900-
COASTAL MARINE OBSERVATIONS


STATION/POSITION TIME  SKY/WX   TEMP    WIND        PRES    VSBY  WAVE
                                AIR SEA DIR/SP/G                  HT/PER
                 (UTC)          (F)     (DEG/KT/KT) (MB)    (MI)  (FT/S)
NY HARB ENTRANCE 0750            76 76  250/  6/  8 1013.9          2/ 8
4S FIRE IS       NOT AVBL
20S FIRE ISLAND  0750            76 74  260/  8/ 10 1014.0          2/ 8
GREAT SOUTH BAY  0700            79 80  270/ 10/ 12   N/A
23SW MTP         0750            74 73  290/  8/ 10 1013.5          2/10
HUDSON CANYON    NOT AVBL
KINGS POINT      0700            79 71  180/  2/  2 1013.5
CENTRAL LI SOUND NOT AVBL
EASTERN LI SOUND 0700            71 69  270/  6/  8   N/A
ROBBINS REEF     0700            78     270/  5/  5 1013.2
$$


>>>>>>>>>>>>>>>>>>>>>>>>>>>> KEY <<<<<<<<<<<<<<<<<<<<<<<<<<<
>                                                          <
>     SKY/WX - SKY CONDITION/PRESENT WEATHER               <
>     TMP    - TEMPERATURE IN FAHRENHEIT                   <
>     DP     - DEWPOINT IN FAHRENHEIT                      <
>     RH     - RELATIVE HUMIDITY IN PERCENT                <
>     WIND   - DIRECTION AND SPEED IN MPH                  <
>     PRES   - MEAN SEA LEVEL PRESSURE IN INCHES OF HG     <
>     WCI    - WIND CHILL INDEX                            <
>     VSB    - VISIBILITY IN MILES                         <
>     HX     - HEAT INDEX                                  <
>     TC     - TEMPERATURE IN CELSIUS                      <
>     VRB    - VARIABLE WIND DIRECTION                     <
>                                                          <
>>>>>>>>>>>>>>>>>>>>>>>>>>>> KEY <<<<<<<<<<<<<<<<<<<<<<<<<<<





USA.gov is the U.S. government's official web portal to all federal, state and local government web resources and services.